Stations météo

réclame
Mon MeteoGroup
Ostersund/Froson, Suède (2226): Température de l'air & dewpoint: 14.06.2018 07:00:00 - 20.06.2018 07:00:00 (CEST)Ostersund/Froson, Suède (2226): Vitesse du vent: 14.06.2018 07:00:00 - 20.06.2018 07:00:00 (CEST)Ostersund/Froson, Suède (2226): Direction du vent: 14.06.2018 07:00:00 - 20.06.2018 07:00:00 (CEST)Ostersund/Froson, Suède (2226): reduced air pressure: 14.06.2018 07:00:00 - 20.06.2018 07:00:00 (CEST)Ostersund/Froson, Suède (2226): visibility: 14.06.2018 07:00:00 - 20.06.2018 07:00:00 (CEST)
Date & Time tt [°C] td [°C] ff [km/h] ff [knt] dd ppp [hPa] vv [km]
20.06.2018 07:00:00 9,7 1,1 15 8 W 1004,3 10
20.06.2018 06:00:00 9,0 2,8 13 7 WSW 1003,9 10
20.06.2018 05:00:00 8,4 4,0 11 6 W 1003,7 10
20.06.2018 04:00:00 8,6 3,4 16 9 WNW 1003,4 10
20.06.2018 03:00:00 8,7 3,7 15 8 W 1002,8 10
20.06.2018 02:00:00 8,1 3,9 5 3 W 1002,7 10
20.06.2018 01:00:00 8,7 4,1 9 5 W 1002,1 10
20.06.2018 00:00:00 9,1 3,3 15 8 WNW 1001,8 10
19.06.2018 23:00:00 9,7 3,2 29 16 WNW 1001,3 10
19.06.2018 22:00:00 11,0 3,1 31 17 WNW 1000,7 10
19.06.2018 21:00:00 12,2 5,1 18 10 WNW 999,8 10
19.06.2018 20:00:00 12,6 4,6 35 19 WNW 999,1 10
19.06.2018 19:00:00 12,0 4,7 28 15 NW 998,5 10
19.06.2018 18:00:00 13,3 4,9 22 12 NW 997,7 50
19.06.2018 17:00:00 13,0 6,6 26 14 NW 997,3 10
19.06.2018 16:00:00 13,0 5,4 8 4 S 996,9 10
19.06.2018 15:00:00 13,3 4,2 4 2 SSE 995,8 10
19.06.2018 14:00:00 12,0 3,0 13 7 WNW 996,7 10
19.06.2018 13:00:00 11,2 4,2 15 8 W 996,6 10
19.06.2018 12:00:00 10,6 4,9 24 13 WNW 996,8 10
19.06.2018 11:00:00 9,7 5,1 29 16 NW 996,5 10
19.06.2018 10:00:00 8,4 5,3 22 12 NW 996,3 10
19.06.2018 09:00:00 8,1 5,7 15 8 WNW 996,0 10
19.06.2018 08:00:00 6,7 5,8 8 4 NNW 996,2 10
19.06.2018 07:00:00 6,6 6,0 13 7 N 996,2 10
19.06.2018 06:00:00 7,0 6,6 26 14 WNW 995,8 9
19.06.2018 05:00:00 7,6 7,0 18 10 W 996,2 13
19.06.2018 04:00:00 12,2 8,6 11 6 S 995,4 50
19.06.2018 03:00:00 12,6 8,2 11 6 SSE 996,2 50
19.06.2018 02:00:00 13,2 8,0 14 8 S 997,3 50
19.06.2018 01:00:00 13,7 7,9 16 9 S 998,0 10
19.06.2018 00:00:00 14,3 7,8 15 8 S 998,7 10
18.06.2018 23:00:00 14,3 8,0 15 8 S 999,4 10
18.06.2018 22:00:00 14,6 7,6 9 5 S 999,6 10
18.06.2018 21:00:00 15,5 7,5 13 7 SSW 999,9 10
18.06.2018 20:00:00 16,4 6,5 15 8 SSW 1000,1 10
18.06.2018 19:00:00 16,7 6,2 15 8 SW 1000,4 10
18.06.2018 18:00:00 17,5 7,8 11 6 S 1000,2 10
18.06.2018 17:00:00 16,7 8,9 13 7 ESE 1001,0 10
18.06.2018 16:00:00 14,6 9,6 7 4 E 1002,0 50
18.06.2018 15:00:00 15,3 11,7 21 11 SE 1002,2 10
18.06.2018 14:00:00 14,5 12,2 9 5 ESE 1002,9 10
18.06.2018 13:00:00 14,7 8,9 4 2 W 1003,5 10
18.06.2018 12:00:00 14,0 9,4 5 3 NNW 1003,8 10
18.06.2018 11:00:00 12,4 8,9 5 3 SW 1004,3 10
18.06.2018 10:00:00 10,8 8,2 5 3 W 1004,7 10
18.06.2018 09:00:00 10,3 8,7 9 5 WSW 1004,9 10
18.06.2018 08:00:00 9,5 8,4 5 3 NW 1004,7 10
18.06.2018 07:00:00 9,0 8,5 5 3 NNW 1005,0 10
18.06.2018 06:00:00 8,8 8,7 4 2 N 1005,4 4,7
18.06.2018 05:00:00 8,7 8,4 4 2 N 1005,9 6
18.06.2018 04:00:00 8,8 8,3 9 5 E 1006,3 9
18.06.2018 03:00:00 9,1 8,6 9 5 E 1006,9 8
18.06.2018 02:00:00 8,9 8,6 8 4 ENE 1007,5 10
18.06.2018 01:00:00 9,0 8,2 16 9 E 1008,1 10
18.06.2018 00:00:00 9,5 8,4 18 10 E 1008,6 10
17.06.2018 23:00:00 9,9 9,1 16 9 SE 1009,4 10
17.06.2018 22:00:00 10,2 9,0 21 11 SE 1010,1 10
17.06.2018 21:00:00 11,0 9,4 21 11 SE 1010,5 10
17.06.2018 20:00:00 11,3 10,4 21 11 ESE 1010,8 10
17.06.2018 19:00:00 12,2 10,1 16 9 SE 1011,2 10
17.06.2018 18:00:00 12,9 9,3 21 11 SE 1011,4 10
17.06.2018 17:00:00 13,2 9,4 24 13 SE 1011,6 10
17.06.2018 16:00:00 12,5 10,9 26 14 ESE 1012,1 10
17.06.2018 15:00:00 11,8 10,2 26 14 ESE 1012,6 10
17.06.2018 14:00:00 11,3 9,7 28 15 ESE 1013,2 10
17.06.2018 13:00:00 11,2 9,6 24 13 SE 1013,9 10
17.06.2018 12:00:00 11,9 8,4 18 10 SE 1014,3 10
17.06.2018 11:00:00 14,1 7,6 13 7 ESE 1013,7 10
17.06.2018 10:00:00 13,9 7,4 16 9 SE 1014,0 10
17.06.2018 09:00:00 12,5 6,8 16 9 ESE 1014,3 10
17.06.2018 08:00:00 11,4 6,5 8 4 SE 1014,5 10
17.06.2018 07:00:00 11,3 5,2 9 5 SE 1014,9 10
17.06.2018 06:00:00 10,1 5,3 9 5 SE 1015,4 10
17.06.2018 05:00:00 9,8 4,6 11 6 SE 1015,7 10
17.06.2018 04:00:00 9,7 3,7 9 5 ESE 1015,7 10
17.06.2018 03:00:00 10,4 3,7 15 8 ESE 1015,6 10
17.06.2018 02:00:00 10,6 3,6 11 6 ENE 1015,6 10
17.06.2018 01:00:00 11,0 3,5 16 9 NE 1015,7 10
17.06.2018 00:00:00 11,6 3,4 13 7 NE 1015,6 10
16.06.2018 23:00:00 12,7 3,4 13 7 NNE 1015,4 10
16.06.2018 22:00:00 14,4 2,9 8 4 NNE 1014,9 10
16.06.2018 21:00:00 15,7 1,4 8 4 NNE 1014,3 10
16.06.2018 20:00:00 16,8 1,2 8 4 NNE 1013,8 10
16.06.2018 19:00:00 17,4 1,0 8 4 NNW 1013,5 10
16.06.2018 18:00:00 16,7 0,8 8 4 W 1013,6 10
16.06.2018 17:00:00 17,2 2,0 11 6 W 1013,5 10
16.06.2018 16:00:00 17,0 0,2 11 6 - 1013,2 10
16.06.2018 15:00:00 16,7 0,8 8 4 - 1013,0 10
16.06.2018 14:00:00 15,8 0,8 8 4 WSW 1013,1 10
16.06.2018 13:00:00 15,3 2,1 15 8 WNW 1012,9 10
16.06.2018 12:00:00 15,4 1,1 11 6 WSW 1012,6 10
16.06.2018 11:00:00 14,9 1,4 13 7 WNW 1012,5 10
16.06.2018 10:00:00 12,3 1,3 13 7 NW 1012,8 10
16.06.2018 09:00:00 13,5 1,2 4 2 W 1012,1 10
16.06.2018 08:00:00 12,5 4,5 5 3 SSW 1011,8 10
16.06.2018 07:00:00 12,1 4,1 7 4 S 1011,4 50
16.06.2018 06:00:00 10,8 3,6 7 4 SSW 1011,1 50
16.06.2018 05:00:00 10,1 2,4 11 6 S 1010,8 50
16.06.2018 04:00:00 10,2 2,3 11 6 SSW 1010,3 50
16.06.2018 03:00:00 10,6 1,6 11 6 SSW 1009,9 50
16.06.2018 02:00:00 11,5 1,4 14 8 S 1009,3 50
16.06.2018 01:00:00 11,6 1,2 7 4 S 1008,9 50
16.06.2018 00:00:00 12,6 0,7 11 6 SSW 1008,3 10
15.06.2018 23:00:00 14,1 0,3 11 6 SSW 1007,4 10
15.06.2018 22:00:00 15,8 -0,9 15 8 SW 1006,5 10
15.06.2018 21:00:00 16,0 -1,6 22 12 SW 1005,5 10
15.06.2018 20:00:00 17,1 -1,1 16 9 SW 1004,8 10
15.06.2018 19:00:00 17,3 -0,9 22 12 WSW 1004,4 10
15.06.2018 18:00:00 16,2 0,7 31 17 SW 1003,9 10
15.06.2018 17:00:00 16,0 0,9 26 14 SW 1003,5 10
15.06.2018 16:00:00 16,6 -0,2 28 15 SW 1002,7 10
15.06.2018 15:00:00 17,1 -0,2 29 16 SW 1001,8 10
15.06.2018 14:00:00 16,8 -0,9 24 13 SW 1001,4 10
15.06.2018 13:00:00 17,2 0,4 24 13 WSW 1000,6 10
15.06.2018 12:00:00 15,8 0,0 29 16 SW 999,9 10
15.06.2018 11:00:00 16,9 0,5 22 12 WSW 998,9 10
15.06.2018 10:00:00 16,1 1,4 26 14 SW 998,4 10
15.06.2018 09:00:00 15,2 4,6 15 8 SSW 997,9 10
15.06.2018 08:00:00 14,4 5,7 26 14 SSW 996,9 10
15.06.2018 07:00:00 13,1 6,7 28 15 SSW 996,0 10
15.06.2018 06:00:00 12,7 7,2 29 16 S 995,5 10
15.06.2018 05:00:00 12,4 7,7 21 11 S 995,2 10
15.06.2018 04:00:00 12,4 8,3 26 14 SSE 995,3 10
15.06.2018 03:00:00 12,9 9,0 24 13 S 994,9 10
15.06.2018 02:00:00 12,1 10,0 42 23 S 994,4 7
15.06.2018 01:00:00 12,5 9,5 26 14 SSE 994,9 10
15.06.2018 00:00:00 12,4 9,9 24 13 S 995,8 10
14.06.2018 23:00:00 12,6 9,6 39 21 S 995,2 10
14.06.2018 22:00:00 12,5 9,1 29 16 SSE 995,5 10
14.06.2018 21:00:00 13,3 8,4 31 17 SSE 996,4 10
14.06.2018 20:00:00 13,4 8,0 24 13 SSE 997,2 10
14.06.2018 19:00:00 13,7 7,7 29 16 S 997,9 10
14.06.2018 18:00:00 14,4 6,5 31 17 S 997,9 10
14.06.2018 17:00:00 14,9 5,9 35 19 S 998,6 10
14.06.2018 16:00:00 16,5 5,5 28 15 S 998,2 10
14.06.2018 15:00:00 16,8 8,7 29 16 SSE 998,5 10
14.06.2018 14:00:00 15,4 8,9 31 17 SSE 999,7 10
14.06.2018 13:00:00 14,0 9,4 29 16 SE 1000,8 10
14.06.2018 12:00:00 12,7 9,2 26 14 SE 1002,4 10
14.06.2018 11:00:00 11,6 9,2 22 12 SE 1003,1 10
14.06.2018 10:00:00 10,7 8,5 22 12 SE 1004,0 10
14.06.2018 09:00:00 11,0 8,0 22 12 SE 1004,7 10
14.06.2018 08:00:00 10,9 7,4 18 10 SSE 1005,0 10
14.06.2018 07:00:00 10,2 7,3 18 10 SSE 1005,3 10

tt = Température de l'air
td = dewpoint
ff = Vitesse du vent
dd = Direction du vent
ppp = reduced air pressure
vv = visibility

stations d'obs. à proximité